Date String (YYYY-MM-DD hh:mm:ss) UTC,Instrument flags,Ambient pressure (hPa),Sample flow (lpm),Bypass flow (lpm),Sample temperature (°C),Ambient temperature (°C),ASC tube jacket temperature (°C),LED temperature (°C),Box temperature (°C),Sample RH (%),Span deviation,Mass concentration (μg/m³),Mass concentration (μg/m³),Mass concentration (μg/m³)
DateTimeUTC,F1_M11,P_M11,Q1_M11,Q2_M11,T1_M11,T2_M11,T3_M11,T4_M11,T5_M11,U1_M11,ZSPAN_M11,X0_M11,X2_M11,X1_M11
2021-08-23 00:00:00,,0824.3,5.01,0.00,29.3,28.3,00.0,38.3,31.3,14.8,0001.9,0018.97,0011.63,0011.26
2021-08-23 00:01:00,,0824.3,5.00,0.00,29.4,28.6,00.0,38.3,31.4,14.4,0002.1,0019.05,0011.70,0011.33
2021-08-23 00:02:00,,0824.2,5.01,0.00,29.4,27.8,00.0,38.3,31.1,14.5,0002.0,0018.80,0011.71,0011.35
2021-08-23 00:03:00,,0824.2,4.99,0.00,29.3,26.1,00.0,38.3,30.7,15.6,0001.8,0017.47,0011.71,0011.35
2021-08-23 00:04:00,,0824.2,5.01,0.00,29.2,26.0,00.0,38.3,30.6,15.4,0001.9,0017.48,0011.74,0011.36
2021-08-23 00:05:00,,0824.2,4.99,0.00,29.1,26.4,00.0,38.3,30.8,15.4,0001.7,0017.46,0011.75,0011.37
2021-08-23 00:06:00,,0824.2,5.00,0.00,29.1,26.9,00.0,38.2,30.8,15.0,0001.6,0017.15,0011.76,0011.35
2021-08-23 00:07:00,,0824.2,5.00,0.00,29.2,27.3,00.0,38.2,30.9,15.7,0001.4,0017.18,0011.76,0011.35
2021-08-23 00:08:00,,0824.3,5.00,0.00,29.2,27.7,00.0,38.2,31.0,16.6,0001.4,0016.83,0011.80,0011.39
2021-08-23 00:09:00,,0824.3,5.01,0.00,29.3,28.0,00.0,38.2,31.2,15.5,0001.6,0016.35,0011.83,0011.40
2021-08-23 00:10:00,,0824.3,4.99,0.00,29.3,28.3,00.0,38.3,31.3,15.2,0001.5,0015.87,0011.83,0011.39
2021-08-23 00:11:00,,0824.3,5.01,0.00,29.4,28.4,00.0,38.3,31.3,15.1,0001.3,0015.60,0011.84,0011.38
2021-08-23 00:12:00,,0824.3,5.01,0.00,29.3,26.9,00.0,38.3,30.8,15.8,0001.0,0015.68,0011.83,0011.34
2021-08-23 00:13:00,,0824.3,4.99,0.00,29.2,25.6,00.0,38.3,30.5,15.9,0001.1,0015.73,0011.84,0011.34
2021-08-23 00:14:00,,0824.3,5.01,0.00,29.1,26.0,00.0,38.2,30.5,16.7,0001.0,0015.77,0011.84,0011.35
2021-08-23 00:15:00,,0824.2,4.98,0.00,29.0,26.4,00.0,38.2,30.7,17.1,0001.2,0015.97,0011.81,0011.32
2021-08-23 00:16:00,,0824.4,5.00,0.00,29.0,26.9,00.0,38.2,30.7,17.0,0001.6,0016.48,0011.77,0011.29
2021-08-23 00:17:00,,0824.5,5.01,0.00,29.1,27.3,00.0,38.2,30.9,16.7,0001.3,0016.38,0011.71,0011.28
2021-08-23 00:18:00,,0824.3,4.99,0.00,29.1,27.7,00.0,38.2,31.0,17.5,0001.2,0016.32,0011.67,0011.23
2021-08-23 00:19:00,,0824.3,5.00,0.00,29.2,28.0,00.0,38.2,31.1,18.5,0001.3,0016.21,0011.58,0011.14
2021-08-23 00:20:00,,0824.3,4.99,0.00,29.3,28.3,00.0,38.2,31.2,18.6,0001.2,0016.46,0011.47,0011.07
2021-08-23 00:21:00,,0824.3,4.99,0.00,29.3,28.5,00.0,38.2,31.3,18.6,0001.0,0016.55,0011.42,0011.03
2021-08-23 00:22:00,,0824.3,5.01,0.00,29.4,28.1,00.0,38.3,31.2,18.4,0001.1,0016.73,0011.35,0010.96
2021-08-23 00:23:00,,0824.3,5.01,0.00,29.3,26.2,00.0,38.3,30.7,18.6,0001.6,0016.53,0011.25,0010.87
2021-08-23 00:24:00,,0824.3,4.98,0.00,29.1,25.7,00.0,38.2,30.5,18.0,0001.6,0016.40,0011.18,0010.78
2021-08-23 00:25:00,,0824.3,5.00,0.00,29.1,26.1,00.0,38.2,30.6,17.3,0001.9,0016.51,0011.10,0010.70
2021-08-23 00:26:00,,0824.3,5.00,0.00,29.0,26.6,00.0,38.2,30.6,17.1,0001.9,0016.15,0011.02,0010.62
2021-08-23 00:27:00,,0824.3,5.00,0.00,29.1,27.0,00.0,38.2,30.8,18.5,0001.6,0015.49,0010.95,0010.56
2021-08-23 00:28:00,,0824.4,5.00,0.00,29.1,27.5,00.0,38.2,30.9,17.7,0001.8,0015.88,0010.98,0010.59
2021-08-23 00:29:00,,0824.3,5.00,0.00,29.2,27.8,00.0,38.2,31.0,18.3,0001.9,0016.76,0011.03,0010.63
2021-08-23 00:30:00,,0824.3,5.00,0.00,29.2,28.1,00.0,38.2,31.2,17.9,0001.5,0016.86,0011.09,0010.67
2021-08-23 00:31:00,,0824.3,5.01,0.00,29.3,28.4,00.0,38.2,31.3,17.7,0001.5,0016.95,0011.16,0010.72
2021-08-23 00:32:00,,0824.3,5.00,0.00,29.4,28.6,00.0,38.3,31.3,17.7,0001.9,0017.61,0011.25,0010.79
2021-08-23 00:33:00,,0824.3,5.00,0.00,29.4,27.6,00.0,38.3,31.1,17.3,0002.1,0017.44,0011.36,0010.90
2021-08-23 00:34:00,,0824.3,5.00,0.00,29.2,25.9,00.0,38.3,30.6,17.1,0001.9,0017.66,0011.51,0011.05
2021-08-23 00:35:00,,0824.3,5.01,0.00,29.1,25.9,00.0,38.2,30.6,17.5,0002.0,0018.12,0011.62,0011.18
2021-08-23 00:36:00,,0824.3,5.00,0.00,29.1,26.3,00.0,38.2,30.7,17.4,0002.1,0018.18,0011.78,0011.32
2021-08-23 00:37:00,,0824.4,4.99,0.00,29.1,26.7,00.0,38.2,30.7,17.0,0002.1,0018.46,0011.96,0011.47
2021-08-23 00:38:00,,0824.3,5.01,0.00,29.1,27.2,00.0,38.2,30.8,17.0,0002.2,0018.65,0012.10,0011.58
2021-08-23 00:39:00,,0824.3,5.00,0.00,29.1,27.6,00.0,38.2,31.0,16.9,0002.1,0018.43,0012.16,0011.64
2021-08-23 00:40:00,,0824.3,5.00,0.00,29.2,27.9,00.0,38.2,31.1,17.1,0002.2,0017.65,0012.17,0011.68
2021-08-23 00:41:00,,0824.3,5.01,0.00,29.3,28.2,00.0,38.2,31.2,18.1,0002.4,0017.75,0012.19,0011.74
2021-08-23 00:42:00,,0824.3,5.01,0.00,29.3,28.2,00.0,38.2,31.2,18.4,0002.2,0017.40,0012.24,0011.77
2021-08-23 00:43:00,,0824.4,4.99,0.00,29.2,26.6,00.0,38.2,30.7,18.8,0002.0,0016.98,0012.23,0011.78
2021-08-23 00:44:00,,0824.3,5.01,0.00,29.1,25.5,00.0,38.2,30.4,19.2,0002.0,0017.40,0012.24,0011.79
2021-08-23 00:45:00,,0824.4,5.00,0.00,29.0,25.9,00.0,38.2,30.5,18.4,0002.0,0017.39,0012.19,0011.75
2021-08-23 00:46:00,,0824.4,5.00,0.00,29.0,26.3,00.0,38.1,30.6,18.7,0001.8,0017.13,0012.16,0011.72
2021-08-23 00:47:00,,0824.4,5.01,0.00,29.0,26.8,00.0,38.1,30.7,19.1,0001.7,0016.97,0012.11,0011.70
2021-08-23 00:48:00,,0824.4,5.00,0.00,29.0,27.2,00.0,38.1,30.8,18.5,0001.6,0016.87,0012.02,0011.64
2021-08-23 00:49:00,,0824.5,5.00,0.00,29.1,27.6,00.0,38.1,30.9,18.3,0001.6,0017.22,0012.00,0011.59
2021-08-23 00:50:00,,0824.4,5.00,0.00,29.1,27.9,00.0,38.1,31.0,19.1,0001.8,0017.27,0011.96,0011.53
2021-08-23 00:51:00,,0824.4,5.00,0.00,29.2,28.2,00.0,38.2,31.1,23.2,0001.6,0017.43,0011.98,0011.52
2021-08-23 00:52:00,,0824.4,5.02,0.00,29.3,28.4,00.0,38.2,31.2,24.1,0001.4,0017.43,0012.01,0011.50
2021-08-23 00:53:00,,0824.5,5.00,0.00,29.3,28.0,00.0,38.2,31.1,23.6,0001.7,0017.31,0011.95,0011.45
2021-08-23 00:54:00,,0824.5,5.01,0.00,29.2,26.1,00.0,38.2,30.6,22.0,0001.9,0017.22,0011.92,0011.42
2021-08-23 00:55:00,,0824.4,4.99,0.00,29.0,25.6,00.0,38.2,30.4,20.1,0001.7,0016.71,0011.87,0011.37
2021-08-23 00:56:00,,0824.5,5.00,0.00,29.0,26.0,00.0,38.2,30.5,19.7,0001.7,0016.61,0011.84,0011.36
2021-08-23 00:57:00,,0824.5,5.01,0.00,29.0,26.5,00.0,38.1,30.6,17.8,0001.8,0016.71,0011.81,0011.30
2021-08-23 00:58:00,,0824.5,4.99,0.00,29.0,27.0,00.0,38.1,30.7,18.0,0001.5,0016.92,0011.73,0011.22
2021-08-23 00:59:00,,0824.5,5.01,0.00,29.0,27.4,00.0,38.1,30.9,17.8,0001.5,0016.79,0011.71,0011.18
